Location: Lecco
(45.8566°N, 9.3977°E)
Time: 07:43:39
(UTC+02:00)

OTV 5 (USA 277) - Pass Details

Date: 19 June 2019
Orbit: 299 x 335 km, 54.5° (Epoch: 13 July)

Event Time Altitude Azimuth Distance (km) Brightness Sun altitude
Exits shadow 23:29:52 10° 74° (ENE) 1,259 ? -16.1°
Drops below altitude 10° 23:29:54 10° 74° (ENE) 1,269 ? -16.1°
Enters shadow 00:39:02 -41° 242° (WSW) 8,916 ? -20.0°
Maximum altitude 01:01:41 33° 334° (NNW) 594 ? -20.5°
